Regional Weather Roundup
Issued by NWS Boston, MA

Home | Current Version | Previous Version | Text Only | Print | Product List | Glossary On
Versions: 1 2 3 4 5 6 7 8 9 10 11 12 13 14 15 16 17 18 19 20 21 22 23 24 25 26 27 28 29 30 31 32 33 34 35 36 37 38 39 40 41 42 43 44 45 46 47 48 49 50
000
ASUS41 KBOX 012110
RWRBOX

REGIONAL WEATHER ROUNDUP
NATIONAL WEATHER SERVICE TAUNTON MA
400 PM EST SUN FEB 01 2015

NOTE:  "FAIR" INDICATES FEW OR NO CLOUDS BELOW 12,000 FEET WITH NO
SIGNIFICANT WEATHER AND/OR OBSTRUCTIONS TO VISIBILITY.  THE FOLLOWING
OBSERVATION LOCATIONS DO NOT REPORT PRESENT WEATHER...PROVINCETOWN...
SMITHFIELD...BLOCK ISLAND...KEENE...AND OXFORD.

MAZALL-012200-
EASTERN MASSACHUSETTS

CITY           SKY/WX    TMP DP  RH WIND       PRES   REMARKS
BOSTON         MOCLDY    29   2  31 NW13G21   30.11R WCI  19
BEVERLY        CLEAR     26   2  35 NW14      30.10R WCI  14
LAWRENCE       CLEAR     25   1  35 NW8       30.12R WCI  16
BEDFORD        CLEAR     26   0  32 NW12      30.10R WCI  16
BLUE HILL        N/A     27   7  42 W12G17    30.06R WCI  17
NORWOOD        CLEAR     30   8  39 W13       30.11R WCI  20
MARSHFIELD     CLEAR     32   9  37 NW7G16    30.12R WCI  26
PLYMOUTH       CLEAR     29  11  47 W9        30.10R WCI  20
TAUNTON        CLEAR     33  11  39 NW9       30.10R WCI  25
NEW BEDFORD    CLEAR     32  13  45 W8        30.10R WCI  25
$$

MAZALL-012200-
CAPE COD AND THE ISLANDS

CITY           SKY/WX    TMP DP  RH WIND       PRES   REMARKS
FALMOUTH       PTCLDY    30  12  47 NW6       30.10R WCI  24
HYANNIS        CLEAR     32  11  41 NW7       30.08R WCI  26
CHATHAM        CLEAR     29  12  49 VRB5G16   30.10R WCI  24
PROVINCETOWN   CLEAR     30  10  43 W17G23    30.10R WCI  18
NANTUCKET      CLEAR     31  17  56 NW14      30.10R WCI  21
MARTHAS VNYRD  CLEAR     31  12  45 NW10      30.10R WCI  22
$$

MAZALL-012200-
CENTRAL AND WESTERN MASSACHUSETTS

CITY           SKY/WX    TMP DP  RH WIND       PRES   REMARKS
WORCESTER      CLEAR     30   8  39 W10       30.05R WCI  21
FITCHBURG      CLEAR     29   2  31 NW7       30.10R WCI  22
ORANGE         CLEAR     27   0  31 NW8       30.09R WCI  19
SPRINGFIELD    PTCLDY    30   7  38 NW13      30.11R WCI  20
WESTFIELD      PTCLDY    31   8  38 NW7       30.11R WCI  24
NORTH ADAMS    PTCLDY    24   8  50 W5        30.11R WCI  18
PITTSFIELD     PTCLDY    23   7  50 NW8       30.05S WCI  14
$$

RIZALL-012200-
RHODE ISLAND

CITY           SKY/WX    TMP DP  RH WIND       PRES   REMARKS
PROVIDENCE     PTCLDY    32  11  41 NW12      30.11R WCI  23
NEWPORT        CLEAR     32  12  43 W8        30.10R WCI  25
BLOCK ISLAND   CLEAR     34  18  51 W8G16     30.11S WCI  27
SMITHFIELD     PTCLDY    30   7  37 W13       30.08R WCI  20
WESTERLY       CLEAR     35  12  38 W8        30.12S WCI  29
$$

CTZALL-012200-
CONNECTICUT

CITY           SKY/WX    TMP DP  RH WIND       PRES   REMARKS
BRADLEY INTL   MOCLDY    32  11  41 NW10      30.11R WCI  24
HARTFORD       CLOUDY    32  11  41 VRB7      30.13R WCI  26
BRIDGEPORT     CLOUDY    34  25  69 SW7       30.13S WCI  28
DANBURY        PTSUNNY   32  15  49 SW8       30.12S WCI  25
GROTON         CLEAR     31  15  52 W6        30.13R WCI  25
NEW HAVEN      PTSUNNY   33  23  66 S3        30.14R
CHESTER        PTSUNNY   32  14  47 NW6       30.12R WCI  26
MERIDEN        CLOUDY    33  15  47 W6        30.13S WCI  28
WILLIMANTIC    CLEAR     33   9  36 NW6       30.11R WCI  28
OXFORD         PTSUNNY   30  14  51 CALM      30.10S
$$

MEZ002-015-021-024-NHZ003-005-008-011-012-014-VTZ005-008-012200-
NORTHERN NEW ENGLAND

CITY           SKY/WX    TMP DP  RH WIND       PRES   REMARKS
PORTLAND ME    CLEAR     23  -4  30 NW12      30.09R WCI  12
BANGOR ME      PTCLDY    14  -9  35 NW17G28   30.01R WCI  -3
CONCORD NH     CLEAR     21  -6  30 NW9       30.12R WCI  11
MANCHESTER NH  MOCLDY    23  -1  35 N13       30.10R WCI  11
NASHUA NH      CLEAR     26   1  34 NW15G21   30.12R WCI  14
PORTSMOUTH NH  PTCLDY    22  -4  31 W10       30.10R WCI  11
JAFFREY NH     CLEAR     22  -3  33 NW6G16    30.07R WCI  14
KEENE NH       CLEAR     23   0  36 N8        30.11S WCI  14
BURLINGTON VT  PTCLDY     7 -10  46 N9        30.23S WCI  -7
MT. WASHINGTON PTCLDY   -11 -24  53 NW70        N/A  WCI -51
$$

NYZ052-076-012200-
EASTERN NEW YORK

CITY           SKY/WX    TMP DP  RH WIND       PRES   REMARKS
ALBANY         PTSUNNY   25   9  50 NE7       30.16R WCI  17
NEW YORK CITY  PTSUNNY   35  19  52 W10       30.14S WCI  27
$$

ANZALL-012200-
MARINE OBSERVATIONS

STATION/POSITION TIME  TEMP    WIND        PRES    VSBY  WAVE
                       AIR SEA DIR/SP/G                  HT/PER
                 (UTC) (F)     (DEG/KT/KT) (MB)    (MI)  (FT/S)
BOSTON BUOY      2050   30 40  300/ 16/ 19 1019.5R         2/ 3
BUZZARDS BAY     2000          300/ 11/ 13 1019.9R
NANTUCKET SOUND  NOT AVBL
MASS BAY-STELLWA 2004   29 40  290/ 17/ 23   N/A    1 7/8  3/ 3
ISLE OF SHOALS   2100   24     300/ 21/ 24 1018.5R
S OF BLOCK IS    2008      42                N/A           4/ 5
$$

......................KEY.........................
  SKY/WX - SKY CONDITION/PRESENT WEATHER
  TMP    - TEMPERATURE IN FAHRENHEIT
  DWPT   - DEWPOINT IN FAHRENHEIT
  RH     - RELATIVE HUMIDITY IN PERCENT
  WIND   - DIRECTION AND SPEED IN MPH
  PRES   - MEAN SEA LEVEL PRESSURE IN INCHES OF HG
  WCI    - WIND CHILL INDEX
  VSB    - VISIBILITY IN MILES
  HX     - HEAT INDEX
  TC     - TEMPERATURE IN CELSIUS
  VRB    - VARIABLE WIND DIRECTION
  N/A    - NOT AVAILABLE


USA.gov is the U.S. government's official web portal to all federal, state and local government web resources and services.